Location: St. Louis
(38.6270°N, 90.1994°W)
Time: 02:45:50
(UTC-05:00)

ISS - Pass Details

Date: 22 October 2013
Orbit: 401 x 404 km, 51.6° (Epoch: 27 July)

Event Time Altitude Azimuth Distance (km) Brightness Sun altitude
Rises 19:36:22 0° 317° (NW) 2,383 1.2 -17.0°
Reaches altitude 10° 19:39:04 10° 340° (NNW) 1,519 -0.2 -17.6°
Enters shadow 19:41:01 16° 15° (NNE) 1,203 -1.1 -17.9°
